Regional Weather Roundup
Issued by NWS

Home | Current Version | Previous Version | Text Only | Print | Product List | Glossary On
Versions: 1 2 3 4 5 6 7 8 9 10 11 12 13 14 15 16 17 18 19 20 21 22 23 24 25 26 27 28 29 30 31 32 33 34 35 36 37 38 39 40 41 42 43 44 45 46 47 48 49 50
000
ASUS43 KTOP 310008
RWRKS

WEATHER ROUNDUP FOR KANSAS
NATIONAL WEATHER SERVICE GOODLAND KS
700 PM CDT WED JUL 30 2014

NOTE:  "FAIR" INDICATES FEW OR NO CLOUDS BELOW 12,000 FEET WITH NO
SIGNIFICANT WEATHER AND/OR OBSTRUCTIONS TO VISIBILITY.

KSZ001>006-013>018-027>032-041>047-310100-
NORTHWEST KANSAS

CITY           SKY/WX    TMP DP  RH WIND       PRES   REMARKS
GOODLAND       PTSUNNY   71  55  56 NW5       30.24F
6HR MIN TEMP:  66; 6HR MAX TEMP:  72;

HAYS           MOSUNNY   75  54  46 NE8       30.14F
HILL CITY      MOSUNNY   80  52  37 E3        30.15F
6HR MIN TEMP:  71; 6HR MAX TEMP:  83;

RUSSELL        MOSUNNY   78  53  41 NE9       30.11F
6HR MIN TEMP:  66; 6HR MAX TEMP:  80; 6HR PCP: TRACE;

$$

KSZ061>065-074>080-084>089-310100-
SOUTHWEST KANSAS

CITY           SKY/WX    TMP DP  RH WIND       PRES   REMARKS
DODGE CITY     CLOUDY    69  57  65 NE12      30.18R
6HR MIN TEMP:  64; 6HR MAX TEMP:  69;

ELKHART          N/A     66  59  78 N12         N/A
GARDEN CITY    MOSUNNY   69  56  62 NE9       30.20R
6HR MIN TEMP:  62; 6HR MAX TEMP:  71; 6HR PCP: TRACE;

GREAT BEND       N/A     70  59  68 E8        30.13F
LIBERAL        CLOUDY    66  59  77 N17       30.19S
PRATT          PTSUNNY   68  61  77 NE10G16   30.14S
$$

KSZ066>073-081>083-090>101-310100-
SOUTHEAST KANSAS

CITY           SKY/WX    TMP DP  RH WIND       PRES   REMARKS
CHANUTE        CLOUDY    69  65  86 NE5       30.08F
6HR MIN TEMP:  69; 6HR MAX TEMP:  71; 6HR PCP:  0.09;

COFFEYVILLE    LGT RAIN  68  66  93 E7        30.06S FOG
6HR MIN TEMP:  68; 6HR MAX TEMP:  71; 6HR PCP:  0.14;

HUTCHINSON     CLOUDY    69  62  78 NE6       30.12S
6HR MIN TEMP:  66; 6HR MAX TEMP:  70;

MEDICINE LODGE   N/A     69  64  84 NE13      30.09R
NEWTON         CLOUDY    66  57  72 NE6       30.14F
PARSONS        LGT RAIN  68  65  90 VRB3      30.08F
6HR MIN TEMP:  68; 6HR MAX TEMP:  73; 6HR PCP: TRACE;

WICHITA INTL   CLOUDY    68  65  90 NE10      30.09F
6HR MIN TEMP:  68; 6HR MAX TEMP:  71; 6HR PCP:  0.16;

WICHITA JABRA  CLOUDY    68  50  53 NE7       30.09F
6HR MIN TEMP:  66; 6HR MAX TEMP:  68; 6HR PCP:  0.26;

WICHITA MCCONL CLOUDY    68  68 100 E7        30.10S
WINFIELD       CLOUDY    69  67  93 NE10      30.07F
6HR MIN TEMP:  68; 6HR MAX TEMP:  70; 6HR PCP:  0.61;

$$

KSZ007>012-019>026-033>040-048>060-102>105-310100-
NORTHEAST KANSAS

CITY           SKY/WX    TMP DP  RH WIND       PRES   REMARKS
CONCORDIA      MOSUNNY   78  52  40 NE8       30.10F
6HR MIN TEMP:  71; 6HR MAX TEMP:  81;

EMPORIA        CLOUDY    71  63  75 NE5       30.09F
6HR MIN TEMP:  65; 6HR MAX TEMP:  71; 6HR PCP:  0.01;

LAWRENCE       PTSUNNY   80  60  50 CALM      30.08S
6HR MIN TEMP:  74; 6HR MAX TEMP:  82;

MANHATTAN      MOSUNNY   78  52  40 NE6       30.08S
6HR MIN TEMP:  72; 6HR MAX TEMP:  82;

MARYSVILLE     MOSUNNY   75  54  46 CALM      30.09S
OLATHE IND     CLOUDY    75  60  59 S7        30.09S
6HR MIN TEMP:  74; 6HR MAX TEMP:  78;

OLATHE EXE     CLOUDY    74  61  63 S5        30.08S
6HR MIN TEMP:  74; 6HR MAX TEMP:  77;

SALINA         MOSUNNY   77  56  48 E7        30.10F
6HR MIN TEMP:  67; 6HR MAX TEMP:  78;

TOPEKA BILLARD PTSUNNY   80  57  45 NE6       30.08S
6HR MIN TEMP:  77; 6HR MAX TEMP:  82;

TOPEKA FORBES  PTSUNNY   77  55  46 NE3       30.08S
6HR MIN TEMP:  73; 6HR MAX TEMP:  80;

$$



USA.gov is the U.S. government's official web portal to all federal, state and local government web resources and services.